EB1TK-13 Weather Reports


time (UTC)temp
F
wind
direction
speed
knots
gust
knots
rain 1hr
in
rain 24hr
in
rain mn
in
humidity
%
barometer
mb
20260507100216 59 76 9.6 12.2 0.00 0.00 0.00 86 1010.9
20260507095217 59 66 7.8 11.3 0.00 0.00 0.00 85 1010.8
20260507094217 59 84 6.1 7.8 0.00 0.00 0.00 86 1010.9
20260507093215 59 102 7.0 8.7 0.00 0.00 0.00 86 1010.8
20260507092215 59 102 6.1 7.0 0.00 0.00 0.00 87 1010.9
20260507091215 58 68 7.8 10.4 0.00 0.00 0.00 86 1010.9
20260507090216 59 82 7.0 10.4 0.00 0.00 0.00 87 1010.8
20260507085216 58 73 8.7 9.6 0.00 0.00 0.00 86 1010.9
20260507084217 59 96 6.1 8.7 0.00 0.00 0.00 85 1010.9
20260507083217 59 79 6.1 7.8 0.00 0.00 0.00 86 1010.7
20260507082215 58 92 7.0 9.6 0.00 0.00 0.00 86 1010.8
20260507081215 59 92 7.0 8.7 0.00 0.00 0.00 86 1011.0
20260507080216 58 108 6.1 7.0 0.00 0.00 0.00 85 1010.9
20260507075216 58 116 3.5 5.2 0.00 0.00 0.00 85 1011.2
20260507074216 58 134 3.5 4.3 0.00 0.00 0.00 85 1011.2
20260507073217 58 142 2.6 4.3 0.00 0.00 0.00 87 1011.1
20260507072215 57 127 2.6 2.6 0.00 0.00 0.00 88 1011.2
20260507071215 56 120 4.3 6.1 0.00 0.00 0.00 88 1011.1
20260507070215 56 115 6.1 7.0 0.00 0.00 0.00 89 1011.0
20260507065216 56 118 4.3 7.0 0.00 0.00 0.00 91 1011.2
20260507064216 55 171 1.7 3.5 0.00 0.00 0.00 92 1011.1
20260507063217 54 171 1.7 3.5 0.00 0.00 0.00 92 1011.4
20260507062217 54 169 2.6 3.5 0.00 0.00 0.00 91 1011.3
20260507061215 54 167 0.9 1.7 0.00 0.00 0.00 91 1011.2
20260507060215 54 166 0.9 1.7 0.00 0.00 0.00 91 1011.1
20260507055216 54 0.0 0.0 0.00 0.00 0.00 92 1011.1
20260507054216 53 163 1.7 3.5 0.00 0.00 0.00 92 1011.2
20260507053216 53 161 0.9 3.5 0.00 0.00 0.00 92 1011.2
20260507052217 54 0.0 0.0 0.00 0.00 0.00 91 1011.1
20260507051217 54 160 0.9 0.9 0.00 0.00 0.00 91 1011.0
20260507050215 54 160 0.0 0.9 0.00 0.00 0.00 91 1011.1
20260507045215 54 160 0.9 1.7 0.00 0.00 0.00 91 1011.2
20260507044215 54 160 0.0 0.9 0.00 0.00 0.00 91 1011.2
20260507043216 54 0.0 0.0 0.00 0.00 0.00 91 1011.2
20260507042216 54 0.0 0.0 0.00 0.00 0.00 90 1011.3
20260507041217 54 0.0 0.0 0.00 0.00 0.00 90 1011.2
20260507040217 54 0.0 0.0 0.00 0.00 0.00 91 1011.4
20260507035215 54 0.0 0.0 0.00 0.00 0.00 91 1011.4
20260507034215 54 0.0 0.0 0.00 0.00 0.00 91 1011.5
20260507033216 54 0.0 0.0 0.00 0.00 0.00 91 1011.5
20260507032216 54 0.0 0.0 0.00 0.00 0.00 91 1011.6
20260507031216 54 0.0 0.0 0.00 0.00 0.00 92 1011.6
20260507030217 54 163 0.0 0.9 0.00 0.00 0.00 92 1011.7
20260507025217 53 163 1.7 1.7 0.00 0.00 0.00 92 1011.7
20260507024215 54 163 2.6 3.5 0.00 0.00 0.00 91 1011.9
20260507023215 55 0.0 0.0 0.00 0.00 0.00 91 1011.8
20260507022216 55 0.0 0.0 0.00 0.00 0.00 91 1011.8
20260507021216 54 0.0 0.0 0.00 0.00 0.00 92 1011.8
20260507020216 54 163 0.9 1.7 0.00 0.00 0.00 92 1012.0
20260507015217 54 0.0 0.0 0.00 0.00 0.00 92 1012.0
20260507014214 54 0.0 0.0 0.00 0.02 0.00 1012.1
20260507013215 54 0.0 0.0 0.00 0.03 0.00 92 1012.1
20260507012221 55 0.0 0.0 0.00 0.03 0.00 92 1012.2
20260507011216 54 0.0 0.0 0.00 0.03 0.00 92 1012.3
20260507010216 54 0.0 0.0 0.00 0.03 0.00 92 1012.4
20260507005217 54 0.0 0.0 0.00 0.03 0.00 92 1012.4
20260507004217 54 0.0 0.0 0.00 0.03 0.00 92 1012.6
20260507003215 54 0.0 0.0 0.00 0.03 0.00 92 1012.7
20260507002215 54 0.0 0.0 0.00 0.03 0.00 92 1012.7
20260507001215 54 0.0 0.0 0.00 0.03 0.00 91 1012.7
20260507000216 55 0.0 0.0 0.00 0.03 0.00 91 1012.8
20260506235229 55 0.0 0.0 0.00 0.03 0.00 92 1012.9
20260506233217 54 162 0.9 1.7 0.00 0.04 0.00 92 1013.1
20260506232215 55 0.0 0.0 0.00 0.04 0.00 92 1013.1
20260506231215 55 0.0 0.0 0.00 0.04 0.00 92 1013.0
20260506230215 55 0.0 0.0 0.00 0.04 0.00 92 1013.1
20260506225216 56 0.0 0.0 0.00 0.04 0.00 92 1013.2
20260506224216 55 0.0 0.0 0.00 0.04 0.00 93 1013.3
20260506223217 55 162 0.9 1.7 0.00 0.04 0.00 93 1013.3
20260506222217 55 162 0.9 0.9 0.00 0.04 0.00 93 1013.5
20260506221215 54 162 0.9 1.7 0.00 0.04 0.00 93 1013.6
20260506220215 55 139 2.6 3.5 0.00 0.04 0.00 92 1013.7
20260506215216 55 0.0 0.0 0.00 0.04 0.04 91 1013.7
20260506214216 56 0.0 0.0 0.00 0.04 0.04 91 1013.6
20260506213216 56 0.0 0.0 0.00 0.04 0.04 91 1013.7
20260506212219 56 0.0 0.0 0.00 0.04 0.04 90 1013.7
20260506211217 56 0.0 0.0 0.00 0.04 0.04 90 1013.7
20260506210215 56 0.0 0.0 0.00 0.04 0.04 90 1013.8
20260506205215 57 36 0.9 1.7 0.00 0.04 0.04 89 1013.8
20260506204216 57 0.0 0.0 0.00 0.04 0.04 88 1013.7
20260506203216 57 0.0 0.0 0.00 0.04 0.04 87 1013.7
20260506202219 57 0.0 0.0 0.00 0.04 0.04 86 1013.6
20260506201217 57 0.0 0.0 0.00 0.04 0.04 86 1013.6
20260506200214 57 0.0 0.0 0.00 0.04 0.04 86 1013.5
20260506195215 57 0.0 0.0 0.00 0.04 0.04 86 1013.6
20260506194215 57 0.0 0.0 0.00 0.04 0.04 86 1013.5
20260506193216 57 0.0 0.0 0.00 0.04 0.04 86 1013.5
20260506192216 57 0.0 0.0 0.00 0.04 0.04 86 1013.5
20260506191216 57 36 0.9 1.7 0.00 0.06 0.04 86 1013.5
20260506190217 57 36 2.6 3.5 0.00 0.07 0.04 86 1013.4
20260506185215 57 35 2.6 3.5 0.00 0.09 0.04 85 1013.3
20260506184215 58 36 1.7 2.6 0.00 0.09 0.04 85 1013.4
20260506183215 58 41 3.5 5.2 0.00 0.09 0.04 85 1013.4
20260506182216 58 33 3.5 4.3 0.00 0.09 0.04 85 1013.4
20260506181216 58 36 4.3 5.2 0.00 0.09 0.04 85 1013.5
20260506180217 58 24 2.6 3.5 0.00 0.09 0.04 85 1013.4
20260506175217 58 8 4.3 6.1 0.00 0.09 0.04 84 1013.4
20260506174215 58 15 3.5 4.3 0.00 0.09 0.04 84 1013.5
20260506173215 58 20 5.2 7.0 0.00 0.09 0.04 85 1013.5
20260506172215 58 13 4.3 7.0 0.00 0.09 0.04 86 1013.6
20260506171216 58 13 4.3 7.0 0.00 0.09 0.04 86 1013.6
20260506170216 59 18 4.3 6.1 0.00 0.09 0.04 85 1013.7
20260506165217 60 355 2.6 4.3 0.00 0.09 0.04 83 1013.6
20260506164217 60 357 2.6 4.3 0.00 0.09 0.04 83 1013.5
20260506163215 60 4 3.5 6.1 0.00 0.09 0.04 82 1013.5
20260506162215 61 349 2.6 4.3 0.00 0.09 0.04 81 1013.3
20260506161218 61 5 4.3 7.0 0.00 0.09 0.04 80 1013.2
20260506160216 61 348 5.2 8.7 0.00 0.09 0.04 79 1013.3
20260506155216 61 6 2.6 4.3 0.00 0.09 0.04 80 1013.4
20260506154217 62 293 3.5 5.2 0.00 0.09 0.04 79 1013.4
20260506153217 62 4 3.5 7.0 0.00 0.09 0.04 80 1013.5
20260506152215 61 354 2.6 3.5 0.00 0.09 0.04 81 1013.6
20260506151215 61 306 4.3 7.8 0.00 0.09 0.04 79 1013.8
20260506150216 61 354 1.7 2.6 0.00 0.09 0.04 80 1013.8
20260506145216 61 345 3.5 7.0 0.00 0.09 0.04 79 1013.9
20260506144219 62 342 5.2 8.7 0.00 0.09 0.04 77 1013.9
20260506143217 62 342 5.2 7.8 0.00 0.09 0.04 76 1013.9
20260506142215 61 321 3.5 5.2 0.00 0.09 0.04 77 1014.0
20260506141215 61 278 7.0 8.7 0.00 0.09 0.04 78 1014.1
20260506140215 61 288 3.5 6.1 0.00 0.09 0.04 79 1014.1
20260506135216 62 324 4.3 8.7 0.00 0.09 0.04 79 1014.2
20260506134216 61 285 5.2 9.6 0.00 0.09 0.04 77 1014.4
20260506133217 61 252 4.3 7.8 0.00 0.09 0.04 80 1014.4
20260506132217 61 258 7.8 8.7 0.00 0.09 0.04 79 1014.4
20260506131215 60 296 6.1 10.4 0.00 0.09 0.04 79 1014.5
20260506130215 60 283 5.2 7.8 0.00 0.09 0.04 80 1014.4
20260506125215 60 270 6.1 12.2 0.00 0.09 0.04 81 1014.5
20260506124216 60 271 10.4 13.0 0.00 0.09 0.04 82 1014.5
20260506123216 60 271 7.8 10.4 0.00 0.09 0.04 84 1014.6
20260506122217 59 286 10.4 16.5 0.00 0.09 0.04 83 1014.6
20260506121217 59 267 13.0 17.4 0.00 0.09 0.04 83 1014.7
20260506120215 60 259 7.8 12.2 0.00 0.09 0.04 86 1014.6
20260506115215 59 277 7.8 11.3 0.00 0.09 0.04 84 1014.7
20260506114216 59 259 12.2 13.0 0.00 0.09 0.04 82 1014.7
20260506113216 59 272 8.7 13.0 0.00 0.10 0.04 83 1014.7
20260506112216 59 268 11.3 14.8 0.00 0.10 0.04 83 1014.7
20260506111217 59 279 8.7 11.3 0.00 0.10 0.04 83 1014.8
20260506110217 59 268 9.6 13.0 0.00 0.10 0.04 84 1014.8
20260506105215 59 272 7.8 11.3 0.00 0.10 0.04 82 1014.7
20260506104215 59 260 11.3 13.9 0.00 0.10 0.04 83 1014.7
20260506102216 59 263 10.4 13.9 0.00 0.10 0.04 83 1014.8
20260506101216 58 265 8.7 10.4 0.00 0.10 0.04 83 1014.9